BS-3N

operational
NORAD ID: 23176 Int'l Des: 1994-040 Owner: NHK Country: J
HEOCIRCULAR

关于 BS-3N

正在加载描述...

实时位置

正在加载3D地球...

即将过境

高度历史

Altitude vs Time

uPlot chart will show altitude changes over time

两行轨道根数

1 23176U 94040B 26073.20372994 -.00000249 00000-0 00000-0 0 9996
2 23176 13.2702 20.6518 0004882 354.3043 188.7382 0.99153850101360
Epoch: Mar 14, 2026 • Age: 8 hours

当前状态

高度 36092.1 km
速度 3.06 km/s
星下点 -11.29°S, 42.16°W
发射日期 Jul 8, 1994
运行时间 31.6 years
类型 other

技术详情

分类 Payload
质量 667.00 kg
干质量 467.00 kg
总质量 1210.00 kg
长度 1.60 m
直径 1.40 m
跨度 15.40 m
形状 Box + 2 Pan
制造商 MMAS
平台类型 AS3000
阶段状态 In Orbit
所有者/国家 NHK/J

大型星座

Loading constellations...